TimeEDT,TemperatureF,Dew PointF,Humidity,Sea Level PressureIn,VisibilityMPH,Wind Direction,Wind SpeedMPH,Gust SpeedMPH,PrecipitationIn,Events,Conditions,WindDirDegrees,DateUTC
12:05 AM,59.0,57.2,94,30.06,1.8,South,5.8,-,N/A,,Overcast,170,2013-05-09 04:05:00
12:21 AM,59.0,57.9,96,30.05,3.0,South,5.8,-,N/A,,Overcast,180,2013-05-09 04:21:00
12:46 AM,57.9,57.9,100,30.05,7.0,SSE,4.6,-,0.00,,Overcast,150,2013-05-09 04:46:00
12:54 AM,57.9,57.9,100,30.04,8.0,SSE,4.6,-,0.00,,Overcast,150,2013-05-09 04:54:00
1:05 AM,57.9,57.9,100,30.04,8.0,South,4.6,-,N/A,,Overcast,170,2013-05-09 05:05:00
1:17 AM,57.9,57.9,100,30.04,2.5,SSE,3.5,-,N/A,,Overcast,160,2013-05-09 05:17:00
1:26 AM,57.9,57.9,100,30.03,1.2,South,3.5,-,N/A,,Overcast,190,2013-05-09 05:26:00
1:51 AM,57.2,57.2,100,30.02,3.0,SSW,5.8,-,N/A,,Overcast,200,2013-05-09 05:51:00
1:52 AM,57.9,57.0,97,30.02,4.0,SSW,4.6,-,N/A,,Overcast,200,2013-05-09 05:52:00
2:43 AM,55.9,55.0,97,30.01,1.8,WSW,3.5,-,N/A,,Mostly Cloudy,240,2013-05-09 06:43:00
2:52 AM,55.4,55.4,100,30.01,0.5,Calm,Calm,-,N/A,Fog,Fog,0,2013-05-09 06:52:00
2:54 AM,55.9,55.9,100,30.01,0.2,Calm,Calm,-,N/A,Fog,Fog,0,2013-05-09 06:54:00
3:12 AM,55.9,55.0,97,30.01,1.0,WSW,3.5,-,N/A,,Overcast,240,2013-05-09 07:12:00
3:37 AM,55.9,55.9,100,30.00,0.8,Calm,Calm,-,N/A,,Overcast,0,2013-05-09 07:37:00
3:46 AM,55.9,55.9,100,30.00,1.0,Calm,Calm,-,N/A,,Overcast,0,2013-05-09 07:46:00
3:51 AM,55.4,55.4,100,30.00,3.0,Calm,Calm,-,N/A,,Overcast,0,2013-05-09 07:51:00
3:54 AM,55.9,55.9,100,30.00,3.0,Calm,Calm,-,N/A,,Overcast,0,2013-05-09 07:54:00
4:08 AM,55.9,55.9,100,29.99,1.8,Calm,Calm,-,N/A,,Overcast,0,2013-05-09 08:08:00
4:13 AM,55.9,55.9,100,29.99,0.5,Calm,Calm,-,N/A,Fog,Fog,0,2013-05-09 08:13:00
4:31 AM,55.9,55.9,100,29.99,2.0,Calm,Calm,-,N/A,,Overcast,0,2013-05-09 08:31:00
4:41 AM,55.9,55.0,97,29.98,10.0,North,3.5,-,N/A,,Overcast,10,2013-05-09 08:41:00
4:54 AM,55.0,55.0,100,29.99,6.0,North,3.5,-,N/A,,Overcast,10,2013-05-09 08:54:00
5:34 AM,55.0,54.0,96,29.99,1.5,Calm,Calm,-,N/A,,Overcast,0,2013-05-09 09:34:00
5:38 AM,55.0,55.0,100,29.99,0.2,Calm,Calm,-,N/A,Fog,Fog,0,2013-05-09 09:38:00
5:43 AM,54.0,54.0,100,29.99,0.2,SW,4.6,-,N/A,Fog,Fog,220,2013-05-09 09:43:00
5:52 AM,53.6,53.6,100,29.99,0.2,WSW,3.5,-,N/A,Fog,Fog,250,2013-05-09 09:52:00
5:54 AM,54.0,54.0,100,30.00,0.2,WSW,3.5,-,N/A,Fog,Fog,250,2013-05-09 09:54:00
6:54 AM,55.9,55.0,97,30.00,0.2,East,3.5,-,N/A,Fog,Fog,80,2013-05-09 10:54:00
7:03 AM,55.0,55.0,100,30.00,0.5,Calm,Calm,-,N/A,Fog,Fog,0,2013-05-09 11:03:00
7:14 AM,55.0,55.0,100,30.00,2.0,Calm,Calm,-,N/A,,Overcast,0,2013-05-09 11:14:00
7:54 AM,55.9,55.0,97,30.01,8.0,ESE,3.5,-,N/A,,Mostly Cloudy,120,2013-05-09 11:54:00
8:02 AM,55.9,55.0,97,30.01,9.0,Calm,Calm,-,N/A,,Mostly Cloudy,0,2013-05-09 12:02:00
8:11 AM,55.9,55.0,97,30.01,10.0,East,3.5,-,N/A,,Mostly Cloudy,80,2013-05-09 12:11:00
8:27 AM,57.0,55.0,93,30.00,10.0,Calm,Calm,-,0.00,Rain,Light Rain,0,2013-05-09 12:27:00
8:54 AM,57.0,55.0,93,30.00,7.0,East,3.5,-,0.00,Rain,Light Rain,80,2013-05-09 12:54:00
9:16 AM,57.0,55.9,96,30.00,6.0,East,3.5,-,0.00,,Overcast,90,2013-05-09 13:16:00
9:42 AM,57.9,57.0,97,29.99,6.0,East,3.5,-,0.00,,Overcast,80,2013-05-09 13:42:00
9:54 AM,57.9,55.0,90,29.99,9.0,ENE,5.8,-,0.00,,Overcast,70,2013-05-09 13:54:00
10:19 AM,59.0,55.9,90,29.99,10.0,East,5.8,-,0.00,Rain,Light Rain,100,2013-05-09 14:19:00
10:54 AM,59.0,55.9,90,29.99,10.0,East,3.5,-,0.00,Rain,Light Rain,90,2013-05-09 14:54:00
11:37 AM,57.9,55.9,93,29.99,9.0,ESE,5.8,-,0.02,Rain,Light Rain,110,2013-05-09 15:37:00
11:54 AM,57.9,55.9,93,29.98,9.0,East,4.6,-,0.03,Rain,Light Rain,100,2013-05-09 15:54:00
12:14 PM,57.9,55.9,93,29.97,10.0,ESE,3.5,-,0.01,Rain,Light Rain,110,2013-05-09 16:14:00
12:32 PM,57.9,55.0,90,29.98,10.0,SE,5.8,-,0.01,Rain,Light Rain,140,2013-05-09 16:32:00
12:54 PM,57.2,53.6,88,29.97,10.0,ESE,4.6,-,N/A,,Scattered Clouds,110,2013-05-09 16:54:00
1:20 PM,60.1,55.9,86,29.97,10.0,ESE,5.8,-,N/A,,Mostly Cloudy,110,2013-05-09 17:20:00
1:54 PM,61.0,54.0,78,29.95,10.0,SE,5.8,-,N/A,,Scattered Clouds,140,2013-05-09 17:54:00
2:13 PM,63.0,55.0,75,29.95,10.0,SE,5.8,-,N/A,,Mostly Cloudy,140,2013-05-09 18:13:00
2:54 PM,64.0,55.0,73,29.93,10.0,Variable,5.8,-,N/A,,Overcast,0,2013-05-09 18:54:00
3:54 PM,63.0,55.0,75,29.91,2.5,ESE,6.9,-,0.00,Rain,Light Rain,120,2013-05-09 19:54:00
4:06 PM,60.1,57.0,90,29.92,1.2,SE,11.5,-,0.07,Rain,Heavy Rain,140,2013-05-09 20:06:00
4:19 PM,59.0,57.0,93,29.91,7.0,ESE,6.9,-,0.13,Rain,Light Rain,120,2013-05-09 20:19:00
4:39 PM,57.9,57.0,97,29.91,10.0,SSE,4.6,-,0.13,Rain,Light Rain,150,2013-05-09 20:39:00
4:52 PM,57.2,57.2,100,29.92,3.0,West,3.5,-,0.15,Rain,Rain,270,2013-05-09 20:52:00
4:54 PM,57.9,57.0,97,29.92,3.0,WNW,4.6,-,0.16,Rain,Rain,290,2013-05-09 20:54:00
5:54 PM,57.9,55.9,93,29.90,10.0,NE,3.5,-,0.03,,Mostly Cloudy,50,2013-05-09 21:54:00
6:09 PM,57.0,55.9,96,29.89,9.0,ENE,4.6,-,N/A,,Scattered Clouds,70,2013-05-09 22:09:00
6:54 PM,57.0,55.9,96,29.90,10.0,North,3.5,-,0.00,Rain,Light Rain,10,2013-05-09 22:54:00
7:15 PM,57.0,55.9,96,29.90,10.0,NNE,4.6,-,0.00,,Overcast,20,2013-05-09 23:15:00
7:32 PM,57.0,55.9,96,29.91,10.0,North,3.5,-,0.00,,Overcast,350,2013-05-09 23:32:00
7:39 PM,57.0,55.9,96,29.91,10.0,North,4.6,-,0.00,Rain,Light Rain,10,2013-05-09 23:39:00
7:54 PM,57.0,55.9,96,29.91,10.0,North,3.5,-,0.00,Rain,Light Rain,10,2013-05-09 23:54:00
8:50 PM,57.2,55.4,94,29.92,7.0,North,4.6,-,0.00,,Overcast,10,2013-05-10 00:50:00
8:54 PM,57.0,55.9,96,29.92,6.0,North,3.5,-,0.00,,Overcast,10,2013-05-10 00:54:00
9:54 PM,57.0,55.9,96,29.93,8.0,North,3.5,-,N/A,,Overcast,360,2013-05-10 01:54:00
10:29 PM,57.0,55.9,96,29.92,9.0,North,4.6,-,0.01,,Overcast,350,2013-05-10 02:29:00
10:38 PM,57.0,55.9,96,29.92,10.0,NNW,4.6,-,0.01,,Overcast,330,2013-05-10 02:38:00
10:54 PM,57.0,55.9,96,29.93,10.0,NW,4.6,-,0.01,,Overcast,320,2013-05-10 02:54:00
11:13 PM,57.0,55.0,93,29.92,10.0,Calm,Calm,-,N/A,,Mostly Cloudy,0,2013-05-10 03:13:00
11:45 PM,55.9,54.0,93,29.92,10.0,Calm,Calm,-,N/A,,Mostly Cloudy,0,2013-05-10 03:45:00
11:54 PM,55.0,54.0,96,29.92,10.0,NW,3.5,-,N/A,,Partly Cloudy,310,2013-05-10 03:54:00